When you browse on this site, cookies collect data to enhance your experience and personalize the content and advertising you see.
Visit our Privacy Policy to learn more. By continuing to use the site, you agree to this use of cookies and data.
  • In Switzerland
  • List of Countries
  • For 7 days
  • Water Temperature
  • Satellite Maps
  • Weather Map
  • Weather Widgets
  • user-avatar
    Login

    Hourly Weather Canillo

    Today, 22 January, Tuesday

    Time Temperature Precipitation Wind Pressure Humidity
    00:00 -12°C° 0 mm 2 mps 611 mmHg 81%
    01:00 -12°C° 0 mm 2 mps 611 mmHg 75%
    02:00 -12°C° 0 mm 2 mps 611 mmHg 69%
    03:00 -12°C° 0 mm 2 mps 610 mmHg 63%
    04:00 -12°C° 0 mm 2 mps 610 mmHg 59%
    05:00 -12°C° 0 mm 2 mps 610 mmHg 55%
    06:00 -12°C° 0 mm 2 mps 610 mmHg 50%
    07:00 -10°C° 0 mm 2 mps 610 mmHg 48%
    08:00 -8°C° 0 mm 2 mps 610 mmHg 46%
    09:00 -7°C° 0 mm 2 mps 611 mmHg 44%
    10:00 -3°C° 0 mm 1 mps 611 mmHg 41%
    11:00 -1°C° 0 mm 1 mps 611 mmHg 37%
    12:00 +1°C° 0 mm 1 mps 611 mmHg 34%
    13:00 0°C° 0.1 mm 1 mps 610 mmHg 42%
    14:00 0°C° 0.1 mm 1 mps 609 mmHg 50%
    15:00 -1°C° 0.1 mm 1 mps 608 mmHg 58%
    16:00 -3°C° 0.8 mm 2 mps 608 mmHg 67%
    17:00 -5°C° 0.8 mm 3 mps 607 mmHg 77%
    18:00 -6°C° 0.8 mm 3 mps 607 mmHg 86%
    19:00 -7°C° 0.1 mm 3 mps 606 mmHg 87%
    20:00 -8°C° 0.1 mm 3 mps 606 mmHg 88%
    21:00 -8°C° 0.1 mm 2 mps 605 mmHg 89%
    22:00 -8°C° 0.1 mm 2 mps 605 mmHg 88%
    23:00 -7°C° 0.1 mm 2 mps 605 mmHg 88%

    Tomorrow, 23 January, Wednesday

    Time Temperature Precipitation Wind Pressure Humidity
    00:00 -7°C° 0.1 mm 2 mps 605 mmHg 88%
    01:00 -7°C° 0.4 mm 2 mps 605 mmHg 88%
    02:00 -6°C° 0.4 mm 2 mps 605 mmHg 88%
    03:00 -6°C° 0.4 mm 2 mps 605 mmHg 89%
    04:00 -4°C° 0.9 mm 1 mps 604 mmHg 90%
    05:00 -4°C° 0.9 mm 1 mps 603 mmHg 91%
    06:00 -4°C° 0.9 mm 1 mps 602 mmHg 92%
    07:00 -4°C° 1.2 mm 1 mps 602 mmHg 92%
    08:00 -3°C° 1.2 mm 1 mps 602 mmHg 92%
    09:00 -3°C° 1.2 mm 1 mps 602 mmHg 92%
    10:00 -5°C° 1.5 mm 2 mps 602 mmHg 92%
    11:00 -6°C° 1.5 mm 3 mps 602 mmHg 93%
    12:00 -6°C° 1.5 mm 5 mps 602 mmHg 93%
    13:00 -7°C° 1.6 mm 5 mps 601 mmHg 93%
    14:00 -7°C° 1.6 mm 5 mps 601 mmHg 94%
    15:00 -7°C° 1.6 mm 5 mps 601 mmHg 95%
    16:00 -9°C° 1.5 mm 6 mps 601 mmHg 95%
    17:00 -11°C° 1.5 mm 7 mps 601 mmHg 95%
    18:00 -12°C° 1.5 mm 7 mps 601 mmHg 96%
    19:00 -13°C° 1.1 mm 8 mps 601 mmHg 96%
    20:00 -13°C° 1.1 mm 8 mps 602 mmHg 96%
    21:00 -15°C° 1.1 mm 8 mps 602 mmHg 96%
    22:00 -15°C° 0.5 mm 8 mps 602 mmHg 95%
    23:00 -16°C° 0.5 mm 8 mps 602 mmHg 94%

    Day after tomorrow, 24 January, Thursday

    Time Temperature Precipitation Wind Pressure Humidity
    00:00 -16°C° 0.5 mm 8 mps 602 mmHg 94%
    01:00 -16°C° 0.8 mm 8 mps 602 mmHg 94%
    02:00 -16°C° 0.8 mm 8 mps 603 mmHg 94%
    03:00 -16°C° 0.8 mm 9 mps 603 mmHg 94%
    04:00 -16°C° 0.5 mm 8 mps 603 mmHg 94%
    05:00 -15°C° 0.5 mm 7 mps 603 mmHg 93%
    06:00 -17°C° 0.5 mm 7 mps 604 mmHg 93%
    07:00 -15°C° 0.3 mm 6 mps 604 mmHg 92%
    08:00 -15°C° 0.3 mm 6 mps 605 mmHg 90%
    09:00 -15°C° 0.3 mm 6 mps 606 mmHg 89%
    10:00 -14°C° 0.1 mm 6 mps 606 mmHg 86%
    11:00 -14°C° 0.1 mm 6 mps 606 mmHg 84%
    12:00 -13°C° 0.1 mm 7 mps 607 mmHg 81%
    13:00 -13°C° 0 mm 7 mps 607 mmHg 81%
    14:00 -13°C° 0 mm 7 mps 607 mmHg 81%
    15:00 -13°C° 0 mm 7 mps 607 mmHg 81%
    16:00 -14°C° 0 mm 6 mps 607 mmHg 83%
    17:00 -15°C° 0 mm 6 mps 607 mmHg 86%
    18:00 -15°C° 0 mm 5 mps 607 mmHg 88%
    19:00 -14°C° 0 mm 5 mps 608 mmHg 88%
    20:00 -14°C° 0 mm 5 mps 609 mmHg 89%
    21:00 -14°C° 0 mm 5 mps 609 mmHg 89%
    22:00 -14°C° 0 mm 4 mps 609 mmHg 89%
    23:00 -15°C° 0 mm 4 mps 610 mmHg 89%

    25 January, Friday

    Time Temperature Precipitation Wind Pressure Humidity
    00:00 -15°C° 0 mm 4 mps 610 mmHg 89%
    01:00 -15°C° 0 mm 4 mps 610 mmHg 88%
    02:00 -16°C° 0 mm 4 mps 609 mmHg 86%
    03:00 -16°C° 0 mm 4 mps 609 mmHg 84%
    04:00 -16°C° 0 mm 4 mps 609 mmHg 81%
    05:00 -16°C° 0 mm 4 mps 609 mmHg 78%
    06:00 -16°C° 0 mm 4 mps 610 mmHg 75%
    07:00 -14°C° 0 mm 4 mps 611 mmHg 74%
    08:00 -12°C° 0 mm 4 mps 612 mmHg 73%
    09:00 -10°C° 0 mm 4 mps 612 mmHg 71%
    10:00 -10°C° 0 mm 5 mps 613 mmHg 74%
    11:00 -7°C° 0 mm 5 mps 614 mmHg 76%
    12:00 -5°C° 0 mm 5 mps 614 mmHg 79%
    13:00 -5°C° 0.1 mm 5 mps 614 mmHg 82%
    14:00 -5°C° 0.1 mm 5 mps 614 mmHg 86%
    15:00 -5°C° 0.1 mm 5 mps 614 mmHg 89%
    16:00 -5°C° 0.1 mm 5 mps 614 mmHg 90%
    17:00 -5°C° 0.1 mm 5 mps 614 mmHg 91%
    18:00 -5°C° 0.1 mm 5 mps 614 mmHg 92%
    19:00 -5°C° 0.1 mm 5 mps 614 mmHg 92%
    20:00 -4°C° 0.1 mm 4 mps 614 mmHg 92%
    21:00 -3°C° 0.1 mm 4 mps 614 mmHg 92%
    22:00 -3°C° 0 mm 4 mps 614 mmHg 93%
    23:00 -4°C° 0 mm 4 mps 614 mmHg 93%

    26 January, Saturday

    Time Temperature Precipitation Wind Pressure Humidity
    00:00 -4°C° 0 mm 4 mps 614 mmHg 93%
    01:00 -4°C° 0 mm 3 mps 613 mmHg 93%
    02:00 -4°C° 0 mm 3 mps 613 mmHg 93%
    03:00 -5°C° 0 mm 3 mps 612 mmHg 93%
    04:00 -4°C° 0 mm 2 mps 612 mmHg 93%
    05:00 -5°C° 0 mm 2 mps 611 mmHg 93%
    06:00 -6°C° 0 mm 2 mps 611 mmHg 93%
    07:00 -5°C° 0 mm 2 mps 611 mmHg 92%
    08:00 -4°C° 0 mm 2 mps 611 mmHg 91%
    09:00 -3°C° 0 mm 2 mps 611 mmHg 90%
    10:00 -2°C° 0 mm 2 mps 612 mmHg 91%
    11:00 +1°C° 0 mm 1 mps 612 mmHg 92%
    12:00 +2°C° 0 mm 1 mps 612 mmHg 93%
    13:00 +2°C° 0 mm 1 mps 611 mmHg 94%
    14:00 +2°C° 0 mm 1 mps 610 mmHg 94%
    15:00 +2°C° 0 mm 1 mps 610 mmHg 95%
    16:00 -1°C° 0.8 mm 2 mps 609 mmHg 95%
    17:00 -2°C° 0.8 mm 2 mps 609 mmHg 96%
    18:00 -4°C° 0.8 mm 3 mps 609 mmHg 96%
    19:00 -5°C° 0.2 mm 3 mps 608 mmHg 95%
    20:00 -6°C° 0.2 mm 3 mps 608 mmHg 93%
    21:00 -7°C° 0.2 mm 3 mps 608 mmHg 92%
    22:00 -8°C° 0.2 mm 3 mps 608 mmHg 92%
    23:00 -9°C° 0.2 mm 4 mps 607 mmHg 93%

    27 January, Sunday

    Time Temperature Precipitation Wind Pressure Humidity
    00:00 -9°C° 0.2 mm 4 mps 607 mmHg 93%
    01:00 -9°C° 0.3 mm 4 mps 607 mmHg 93%
    02:00 -9°C° 0.3 mm 4 mps 607 mmHg 94%
    03:00 -9°C° 0.3 mm 3 mps 607 mmHg 94%
    04:00 -10°C° 0.7 mm 4 mps 607 mmHg 94%
    05:00 -11°C° 0.7 mm 5 mps 607 mmHg 94%
    06:00 -11°C° 0.7 mm 5 mps 607 mmHg 94%
    07:00 -11°C° 0.3 mm 5 mps 607 mmHg 93%
    08:00 -11°C° 0.3 mm 5 mps 607 mmHg 92%
    09:00 -12°C° 0.3 mm 6 mps 607 mmHg 90%
    10:00 -11°C° 0.2 mm 6 mps 607 mmHg 89%
    11:00 -11°C° 0.2 mm 6 mps 607 mmHg 88%
    12:00 -11°C° 0.2 mm 6 mps 607 mmHg 87%
    13:00 -11°C° 0.2 mm 6 mps 607 mmHg 87%
    14:00 -10°C° 0.2 mm 6 mps 607 mmHg 88%
    15:00 -10°C° 0.2 mm 6 mps 606 mmHg 88%
    16:00 -11°C° 0.3 mm 6 mps 606 mmHg 89%
    17:00 -11°C° 0.3 mm 6 mps 606 mmHg 91%
    18:00 -11°C° 0.3 mm 5 mps 606 mmHg 92%
    19:00 -12°C° 0.2 mm 5 mps 607 mmHg 92%
    20:00 -12°C° 0.2 mm 5 mps 607 mmHg 92%
    21:00 -12°C° 0.2 mm 5 mps 607 mmHg 92%
    22:00 -12°C° 0.1 mm 5 mps 607 mmHg 92%
    23:00 -11°C° 0.1 mm 4 mps 607 mmHg 92%
    Show more